GW2097 Weather Reports


time (UTC)temp
C
wind
direction
speed
KPH
gust
KPH
rain 1hr
cm
rain 24hr
cm
rain mn
cm
humidity
%
barometer
mb
20260504090106 5 0 0.0 0.0 0.00 0.00 0.00 63 1010.5
20260504081539 6 0 0.0 0.0 0.00 0.00 0.00 59 1010.4
20260504044557 7 0 0.0 0.0 0.00 0.00 0.00 55 1010.4
20260504043040 7 0 0.0 0.0 0.00 0.00 0.00 56 1010.6
20260504041539 7 0 0.0 0.0 0.00 0.00 0.00 55 1010.5
20260504040053 8 0 0.0 0.0 0.00 0.00 0.00 53 1010.5
20260504034553 8 0 0.0 0.0 0.00 0.00 0.00 50 1010.4
20260504033052 8 0 0.0 0.0 0.00 0.00 0.00 52 1010.7
20260504031541 8 0 0.0 0.0 0.00 0.00 0.00 52 1010.7
20260504030038 8 0 0.0 0.0 0.00 0.00 0.00 52 1010.6
20260504024548 8 0 0.0 0.0 0.00 0.00 0.00 54 1010.6
20260504023043 7 0 0.0 0.0 0.00 0.00 0.00 55 1010.6
20260504021540 7 0 0.0 0.0 0.00 0.00 0.00 55 1011.0
20260504020040 7 0 0.0 0.0 0.00 0.00 0.00 54 1010.8
20260504014551 8 0 0.0 0.0 0.00 0.00 0.00 54 1010.6
20260504013050 8 0 0.0 0.0 0.00 0.00 0.00 53 1010.4
20260504011545 8 0 0.0 0.0 0.00 0.00 0.00 51 1010.4
20260504010052 9 0 0.0 0.0 0.00 0.00 0.00 48 1010.3
20260504004548 9 0 0.0 0.0 0.00 0.00 0.00 47 1010.2
20260504003046 9 0 0.0 0.0 0.00 0.00 0.00 48 1010.0
20260504001605 9 0 0.0 0.0 0.00 0.00 0.00 48 1009.9
20260504000044 9 0 0.0 0.0 0.00 0.00 0.00 47 1009.9
20260503234539 9 0 0.0 0.0 0.00 0.00 0.00 47 1009.6
20260503233046 9 0 0.0 0.0 0.00 0.00 0.00 47 1009.6
20260503231546 9 0 0.0 0.0 0.00 0.00 0.00 49 1009.7
20260503230044 10 0 0.0 0.0 0.00 0.00 0.00 49 1009.7
20260503224542 10 0 0.0 0.0 0.00 0.00 0.00 48 1009.7
20260503223048 10 0 0.0 0.0 0.00 0.00 0.00 46 1009.8
20260503221545 10 0 0.0 0.0 0.00 0.00 0.00 46 1009.7
20260503220103 11 0 0.0 0.0 0.00 0.00 0.00 45 1009.9
20260503214545 10 0 0.0 0.0 0.00 0.00 0.00 47 1009.9
20260503213041 10 0 0.0 0.0 0.00 0.00 0.00 47 1009.7
20260503211557 10 0 0.0 0.0 0.00 0.00 0.00 47 1009.7
20260503210049 11 0 0.0 0.0 0.00 0.00 0.00 43 1009.7
20260503204547 11 0 0.0 0.0 0.00 0.00 0.00 41 1009.6
20260503203049 11 0 0.0 0.0 0.00 0.00 0.00 38 1009.3
20260503201546 11 0 0.0 0.0 0.00 0.00 0.00 37 1009.5
20260503200046 11 0 0.0 0.0 0.00 0.00 0.00 38 1009.4
20260503194548 10 0 0.0 0.0 0.00 0.00 0.00 38 1009.7
20260503193049 10 0 0.0 0.0 0.00 0.00 0.00 36 1009.8
20260503191539 10 0 0.0 0.0 0.00 0.00 0.00 39 1010.1
20260503190039 10 0 0.0 0.0 0.00 0.00 0.00 37 1010.2
20260503184538 10 0 0.0 0.0 0.00 0.00 0.00 36 1010.2
20260503183050 11 0 0.0 0.0 0.00 0.00 0.00 36 1010.4
20260503181614 10 0 0.0 0.0 0.00 0.00 0.00 36 1010.4
20260503180059 10 0 0.0 0.0 0.00 0.00 0.00 39 1010.8
20260503174551 9 0 0.0 0.0 0.00 0.00 0.00 39 1011.0
20260503173053 8 0 0.0 0.0 0.00 0.00 0.00 39 1011.1
20260503171549 8 0 0.0 0.0 0.00 0.00 0.00 38 1011.2